[[{"header":{"parameterUnit":"m.s-1","parameterCategory":1,"la1":30.2992,"la2":30.254,"lo1":-89.0895,"lo2":-89.0443,"dy":0.0025,"dx":0.0025,"nx":19,"ny":19,"refTime":"2026-04-06T21:00:00:Z","depth":0,"parameterNumber":2,"parameterNumberName":"U-component_of_WINDS"},"data":[0,0,0,-5.6076,-5.6078,-5.6177,-5.6177,-5.6333,-5.6334,0,0,0,0,0,0,0,0,0,0,0,-5.6064,-5.6066,-5.6076,-5.6079,-5.6177,-5.6177,-5.6332,-5.6334,0,0,0,0,0,0,0,0,0,0,0,-5.6063,-5.6065,-5.6067,-5.6079,-5.6177,-5.6177,-5.6332,-5.6247,0,0,0,0,0,0,0,0,0,0,-5.6147,-5.6152,-5.6065,-5.6067,-5.608,-5.6177,-5.6177,-5.6243,-5.6253,-5.6301,0,-5.6347,0,-5.6343,-5.6347,-5.6347,0,0,0,-5.6066,-5.6144,-5.6155,-5.6068,-5.6081,-5.6177,-5.6129,-5.6248,-5.6259,-5.6314,-5.6349,-5.6354,-5.6346,-5.6348,-5.6349,-5.6669,-5.6671,0,0,-5.6061,-5.6091,-5.6148,-5.6163,-5.6149,-5.6126,-5.6132,-5.6254,-5.6295,-5.635,-5.6357,-5.6349,-5.6349,-5.635,-5.6667,-5.6669,0,0,0,-5.6054,-5.6088,-5.6095,-5.6158,-5.6173,-5.6129,-5.6136,-5.6289,-5.6289,-5.6359,-5.635,-5.635,-5.6352,-5.6664,-5.6667,-5.6803,0,0,0,-5.605,-5.6084,-5.6093,-5.6113,-5.6172,-5.6232,-5.6169,-5.6281,-5.6293,-5.635,-5.635,-5.6354,-5.6662,-5.6666,-5.6794,-5.6863,0,0,0,-5.6052,-5.6084,-5.6104,-5.6115,-5.6158,-5.623,-5.6236,-5.6283,-5.6289,-5.6347,-5.6354,-5.666,-5.6665,-5.6786,-5.685,-5.6959,0,0,0,-5.6063,-5.6221,-5.6106,-5.628,-5.6157,-5.6312,-5.6235,-5.6348,-5.6414,-5.6351,-5.6662,-5.6667,-5.6784,-5.6842,-5.695,-5.7058,-5.7105,0,0,-5.628,-5.6248,-5.6348,-5.6248,-5.6431,-5.6294,-5.6498,-5.6528,-5.6505,-5.6616,-5.6623,-5.6797,-5.6849,-5.6957,-5.7351,-5.7388,0,0,0,-5.6427,-5.65,-5.6541,-5.6606,-5.6633,-5.6664,-5.666,-5.6671,-5.6764,-5.6568,-5.6863,-5.6893,-5.6955,-5.7005,-5.7037,-5.709,-5.6691,-5.669,-5.669,-5.6779,-5.6742,-5.6906,-5.6882,-5.6945,-5.694,-5.6989,-5.7004,-5.6946,-5.7017,-5.7051,-5.7295,-5.7354,-5.7378,-5.7434,-5.7102,-5.7102,-5.7103,-5.7103,-5.7096,-5.7195,-5.7116,-5.7247,-5.7207,-5.7317,-5.7319,-5.7276,-5.7373,-5.7265,-5.7318,-5.7207,-5.742,-5.7467,-5.7113,-5.7111,-5.711,-5.7109,-5.7108,-5.7326,-5.7367,-5.7378,-5.7469,-5.7544,-5.7512,-5.7611,-5.757,-5.7532,-5.7584,-5.7617,-5.7615,-5.7611,-5.7602,-5.7603,-5.7604,-5.7605,-5.7605,-5.7606,-5.7561,-5.7569,-5.7657,-5.7701,-5.7738,-5.7782,-5.778,-5.7816,-5.7846,-5.7808,-5.7808,-5.7747,-5.7447,-5.7374,-5.7619,-5.7616,-5.7615,-5.7614,-5.7613,-5.7902,-5.7818,-5.7954,-5.7992,-5.8042,-5.812,-5.8066,-5.8144,-5.8167,-5.8218,-5.8144,-5.7928,-5.7893,-5.7867,-5.7807,-5.8149,-5.8149,-5.8149,-5.8149,-5.8098,-5.8076,-5.8207,-5.8271,-5.8328,-5.8294,-5.8451,-5.8452,-5.8439,-5.8453,-5.8396,-5.8312,-5.8287,-5.8267,-5.8233,-5.8177,-5.8605,-5.8605,-5.8606,-5.8308,-5.829,-5.8431,-5.8418,-5.8454,-5.8487,-5.8634,-5.8712,-5.868,-5.8624,-5.8463,-5.8444,-5.8307,-5.8263,-5.8207,-5.8154,-5.805,0,0]},{"header":{"parameterUnit":"m.s-1","parameterCategory":1,"la1":30.2992,"la2":30.254,"lo1":-89.0895,"lo2":-89.0443,"dy":0.0025,"dx":0.0025,"nx":19,"ny":19,"refTime":"2026-04-06T21:00:00:Z","depth":0,"parameterNumber":3,"parameterNumberName":"V-component_of_WINDS"},"data":[0,0,0,-2.6788,-2.6788,-2.6798,-2.6798,-2.6822,-2.6823,0,0,0,0,0,0,0,0,0,0,0,-2.6792,-2.6792,-2.6788,-2.6788,-2.6798,-2.6798,-2.6822,-2.6823,0,0,0,0,0,0,0,0,0,0,0,-2.6792,-2.6792,-2.6793,-2.6788,-2.6798,-2.6798,-2.6822,-2.681,0,0,0,0,0,0,0,0,0,0,-2.6799,-2.6809,-2.6792,-2.6793,-2.6788,-2.6798,-2.6798,-2.681,-2.6811,-2.6822,0,-2.6835,0,-2.6829,-2.6825,-2.6825,0,0,0,-2.6783,-2.6808,-2.6805,-2.6793,-2.6789,-2.6798,-2.6792,-2.681,-2.6812,-2.6824,-2.6835,-2.6835,-2.6829,-2.6825,-2.6825,-2.6908,-2.6908,0,0,-2.6782,-2.6797,-2.6803,-2.6806,-2.6806,-2.6792,-2.6793,-2.6811,-2.6824,-2.6835,-2.6836,-2.683,-2.6825,-2.6826,-2.6907,-2.6908,0,0,0,-2.6784,-2.6797,-2.6793,-2.6805,-2.6806,-2.6792,-2.6793,-2.6823,-2.682,-2.6836,-2.683,-2.6826,-2.6826,-2.6906,-2.6907,-2.6953,0,0,0,-2.6784,-2.6798,-2.6793,-2.6802,-2.6806,-2.6815,-2.6805,-2.6819,-2.682,-2.683,-2.6826,-2.6826,-2.6906,-2.6907,-2.695,-2.6972,0,0,0,-2.6789,-2.6799,-2.6803,-2.6803,-2.6808,-2.6814,-2.6812,-2.6819,-2.6817,-2.6825,-2.6826,-2.6905,-2.6907,-2.6948,-2.6968,-2.6998,0,0,0,-2.6798,-2.6844,-2.6804,-2.6852,-2.6808,-2.6843,-2.6812,-2.6837,-2.6849,-2.6826,-2.6906,-2.6907,-2.6947,-2.6966,-2.6996,-2.7026,-2.704,0,0,-2.6864,-2.6852,-2.6879,-2.6844,-2.6889,-2.684,-2.6892,-2.6889,-2.6876,-2.6898,-2.6899,-2.6951,-2.6968,-2.6998,-2.7114,-2.7125,0,0,0,-2.6905,-2.6925,-2.6934,-2.6946,-2.6945,-2.6945,-2.6932,-2.6931,-2.6949,-2.689,-2.697,-2.6979,-2.6996,-2.701,-2.7019,-2.7032,-2.6914,-2.6914,-2.6914,-2.7021,-2.7001,-2.7044,-2.7026,-2.7038,-2.7024,-2.7032,-2.7027,-2.7004,-2.7023,-2.703,-2.7103,-2.712,-2.7127,-2.7141,-2.7044,-2.7045,-2.7045,-2.7045,-2.7115,-2.7139,-2.7107,-2.7137,-2.7116,-2.7141,-2.7129,-2.7111,-2.7131,-2.7097,-2.711,-2.7075,-2.714,-2.7151,-2.7048,-2.7048,-2.7047,-2.7047,-2.7047,-2.7188,-2.7196,-2.7193,-2.7208,-2.7222,-2.7201,-2.7221,-2.7201,-2.7183,-2.7196,-2.72,-2.72,-2.7196,-2.72,-2.72,-2.72,-2.72,-2.7201,-2.7201,-2.7265,-2.726,-2.728,-2.7281,-2.7286,-2.7289,-2.7275,-2.7279,-2.7278,-2.7262,-2.7262,-2.7236,-2.715,-2.7129,-2.7205,-2.7204,-2.7203,-2.7203,-2.7203,-2.7368,-2.7341,-2.7372,-2.7376,-2.7375,-2.739,-2.7363,-2.7373,-2.7373,-2.7384,-2.7355,-2.7295,-2.7281,-2.7273,-2.7255,-2.736,-2.736,-2.736,-2.736,-2.7429,-2.742,-2.7446,-2.7455,-2.746,-2.7439,-2.7474,-2.7462,-2.7447,-2.7446,-2.7427,-2.7402,-2.7395,-2.7386,-2.7375,-2.7358,-2.7486,-2.7486,-2.7487,-2.7491,-2.7481,-2.7515,-2.7499,-2.7496,-2.7494,-2.7526,-2.7536,-2.7513,-2.7491,-2.7444,-2.7439,-2.7397,-2.7385,-2.7363,-2.7347,-2.7315,0,0]}]]